Location: St Paul
(33.4390°N, 83.7350°W)
Time: 05:17:57
(UTC-05:00)

Meteor 2-15 Rocket - Pass Details

Date: 06 October 2017
Orbit: 940 x 955 km, 82.5° (Epoch: 13 December)

Event Time Altitude Azimuth Distance (km) Brightness Sun altitude
Rises 20:26:30 0° 358° (N) 3,609 7.6 -16.3°
Reaches altitude 10° 20:29:02 10° 2° (N) 2,662 6.8 -16.8°
Maximum altitude 20:35:02 59° 81° (E) 1,086 4.4 -18.1°
Drops below altitude 10° 20:41:00 10° 160° (SSE) 2,656 6.5 -19.3°
Sets 20:43:31 0° 164° (SSE) 3,600 7.3 -19.8°
